Weather History for Kirksville, MO

Change the Weather History Date:

Wednesday, January 23, 2013

  Actual Average Record
Temperature  
Mean Temperature 24 °F 26 °F  
Max Temperature 40 °F 36 °F 63 °F (1967)
Min Temperature 8 °F 17 °F -18 °F (1936)
Degree Days  
Heating Degree Days 41 39  
Month to date heating degree days 870 897  
Since 1 July heating degree days 3112 3240  
Cooling Degree Days 0 0  
Month to date cooling degree days 0 0  
Year to date cooling degree days 0 0  
Moisture  
Dew Point 10 °F    
Average Humidity 66    
Maximum Humidity 91    
Minimum Humidity 40    
Precipitation  
Precipitation 0.00 in 0.04 in 0.96 in (1938)
Month to date precipitation 0.29 0.80  
Year to date precipitation 0.29 0.80  
Sea Level Pressure  
Sea Level Pressure 30.31 in    
Wind  
Wind Speed 9 mph (West)    
Max Wind Speed 21 mph    
Max Gust Speed 30 mph    
Visibility 10 miles    
Events      
T = Trace of Precipitation, MM = Missing Value Source: NWS Daily Summary

Daily Weather History Graph

Daily Weather History Graph

Search for Another Location

Airport:

Trip Planner

Search our weather history database for the weather conditions in past years. The results will help you decide how hot, cold, wet, or windy it might be!

Date:

Astronomy

Jan. 23, 2013 Rise Set
Actual Time 7:25 AM CST 5:18 PM CST
Civil Twilight 6:56 AM CST 5:47 PM CST
Nautical Twilight 6:23 AM CST 6:20 PM CST
Astronomical Twilight 5:51 AM CST 6:53 PM CST
Moon 2:29 PM CST (1/23) 4:37 AM CST (1/23)
Length of Visible Light 10h 51m
Length of Day
9h 52m
Waxing Gibbous, 89% of the Moon is Illuminated
Jan 23
Waxing Gibbous
Jan 26
Full
Feb 3
Last Quarter
Feb 10
New
Feb 17
First Quarter

Hourly Weather History & Observations

Time (CST) Temp. Windchill Dew Point Humidity Pressure Visibility Wind Dir Wind Speed Gust Speed Precip Events Conditions
12:55 AM 10.0 °F 3.6 °F 6.1 °F 84% 30.38 in 10.0 mi SSE 3.5 mph - N/A   Clear
1:55 AM 10.0 °F -0.9 °F 6.1 °F 84% 30.36 in 10.0 mi SSE 6.9 mph - N/A   Clear
2:55 AM 10.9 °F 0.2 °F 7.0 °F 84% 30.34 in 10.0 mi SSE 6.9 mph - N/A   Clear
3:55 AM 10.0 °F 1.8 °F 6.1 °F 84% 30.33 in 10.0 mi SSE 4.6 mph - N/A   Clear
4:55 AM 9.0 °F -0.9 °F 5.0 °F 84% 30.31 in 10.0 mi SSE 5.8 mph - N/A   Clear
5:55 AM 9.0 °F -0.9 °F 5.0 °F 84% 30.31 in 10.0 mi South 5.8 mph - N/A   Clear
6:55 AM 9.0 °F 0.6 °F 6.1 °F 88% 30.30 in 10.0 mi South 4.6 mph - N/A   Clear
7:55 AM 10.9 °F 2.9 °F 7.0 °F 84% 30.29 in 10.0 mi South 4.6 mph - N/A   Clear
8:55 AM 16.0 °F 6.3 °F 10.0 °F 77% 30.28 in 10.0 mi SSW 6.9 mph - N/A   Clear
9:55 AM 21.9 °F 11.7 °F 12.0 °F 66% 30.27 in 10.0 mi WSW 9.2 mph - N/A   Clear
10:55 AM 28.0 °F 20.8 °F 12.9 °F 53% 30.26 in 10.0 mi WSW 6.9 mph - N/A   Clear
11:55 AM 33.1 °F 25.5 °F 15.1 °F 48% 30.24 in 10.0 mi West 9.2 mph - N/A   Clear
12:55 PM 36.0 °F 28.5 °F 16.0 °F 44% 30.20 in 10.0 mi West 10.4 mph - N/A   Clear
1:55 PM 39.0 °F 32.3 °F 17.1 °F 41% 30.20 in 10.0 mi West 10.4 mph - N/A   Clear
2:55 PM 39.9 °F 34.5 °F 17.1 °F 40% 30.21 in 10.0 mi NW 8.1 mph - N/A   Clear
3:55 PM 37.4 °F 30.3 °F 17.6 °F 45% 30.18 in 10.0 mi NW 10.4 mph 18.4 mph N/A   Clear
4:55 PM 34.0 °F 26.6 °F 15.1 °F 46% 30.26 in 10.0 mi NNW 9.2 mph 19.6 mph N/A   Clear
5:55 PM 30.9 °F 22.2 °F 14.0 °F 50% 30.30 in 10.0 mi NNW 10.4 mph - N/A   Clear
6:55 PM 28.0 °F 18.1 °F 14.0 °F 56% 30.32 in 10.0 mi North 11.5 mph - N/A   Clear
7:55 PM 25.0 °F 14.2 °F 14.0 °F 63% 30.35 in 10.0 mi North 11.5 mph - N/A   Clear
8:55 PM 21.9 °F 10.4 °F 12.9 °F 68% 30.38 in 10.0 mi North 11.5 mph 17.3 mph N/A   Clear
9:55 PM 19.9 °F 8.6 °F 7.0 °F 57% 30.42 in 10.0 mi NNW 10.4 mph 20.7 mph N/A   Clear
10:55 PM 16.0 °F 2.3 °F 1.0 °F 52% 30.45 in 10.0 mi North 12.7 mph 21.9 mph N/A   Clear
11:55 PM 12.0 °F -2.7 °F -0.0 °F 59% 30.50 in 10.0 mi North 12.7 mph - N/A   Clear